[[{"header":{"parameterUnit":"m.s-1","parameterCategory":1,"la1":30.2991,"la2":30.254,"lo1":-89.0895,"lo2":-89.0444,"dy":0.0017,"dx":0.0017,"nx":28,"ny":28,"refTime":"2024-03-17T21:00:00:Z","depth":0,"parameterNumber":2,"parameterNumberName":"U-component_of_WINDS"},"data":[0,0,0,0,0,0,0,0,0,0,0,0,0,0,0,0,0,0,0,0,0,0,0,0,0,0,0,0,0,0,0,0,0,0,0,0,0,0,0,0,0,0,0,0,0,0,0,0,0,0,0,0,0,0,0,0,0,0,0.0303,0.0303,0,0.0291,0.0291,0.0291,0.0276,0.0275,0.0275,0.0275,0.0263,0.0263,0.0263,0,0,0,0,0,0,0,0,0,0,0,0,0,0.0314,0.0314,0.0303,0.0303,0.0303,0.0291,0.0291,0.0291,0.0276,0.0275,0.0275,0.0275,0.0263,0.0263,0.0263,0,0,0,0,0,0,0,0,0,0,0,0,0,0.0306,0.0314,0.0303,0.0294,0.0293,0.0291,0.0291,0.0291,0.0276,0.0275,0.0275,0.0275,0.0263,0.0263,0.0263,0.0269,0,0,0.0262,0.0262,0,0,0,0,0,0,0,0,0.0307,0.0306,0.0295,0.0295,0.0293,0.0284,0.029,0.0283,0.0276,0.0282,0.0275,0.0274,0.027,0.027,0.0268,0.0268,0.0268,0.0262,0.0262,0.0262,0.0262,0,0,0,0,0,0,0,0.0307,0.0306,0.0298,0.0295,0.0294,0.0291,0.0289,0.0289,0.0278,0.0282,0.0281,0.0279,0.027,0.0268,0.0268,0.0268,0.0262,0.0262,0.0262,0.0262,0.0273,0.0273,0,0,0,0,0,0,0.0309,0.0307,0.0299,0.0298,0.0299,0.0291,0.0289,0.0288,0.0278,0.0277,0.028,0.0279,0.0269,0.0268,0.0267,0.0274,0.0262,0.0262,0.0262,0.0272,0.0273,0.0273,0,0,0,0,0,0,0.0309,0.0309,0.0299,0.0302,0.0301,0.0291,0.029,0.0288,0.0286,0.0277,0.0275,0.028,0.0268,0.0267,0.0269,0.0273,0.0262,0.0262,0.0272,0.0272,0.0273,0.0287,0,0,0,0,0,0,0.031,0.0309,0.0311,0.0302,0.0301,0.0301,0.029,0.0288,0.0286,0.0284,0.0277,0.0275,0.0268,0.0269,0.0268,0.0273,0.0261,0.0271,0.0272,0.0273,0.0286,0.0288,0.029,0,0,0,0,0,0.031,0.0315,0.0311,0.031,0.0303,0.0301,0.03,0.0292,0.0286,0.0288,0.0283,0.0275,0.0273,0.0269,0.0268,0.0273,0.0271,0.0272,0.0273,0.0286,0.0288,0.029,0,0,0,0,0,0,0.0325,0.0314,0.0309,0.0312,0.0307,0.0298,0.0301,0.0294,0.0291,0.029,0.028,0.0279,0.0281,0.0277,0.0273,0.0279,0.0271,0.0272,0.0281,0.0283,0.0285,0.0286,0.0261,0,0,0,0,0,0.0328,0.0327,0.0318,0.0321,0.0319,0.0311,0.0309,0.0303,0.0298,0.0297,0.0291,0.0286,0.0285,0.0284,0.0282,0.0286,0.0284,0.0289,0.0291,0.0292,0.0293,0.0295,0.0297,0.0276,0.0276,0.0276,0,0,0.0335,0.0329,0.0329,0.0324,0.032,0.0319,0.0309,0.0309,0.0308,0.0297,0.0297,0.0293,0.0288,0.029,0.0291,0.0287,0.0298,0.0293,0.0294,0.0294,0.0296,0.0298,0.03,0.0276,0.0276,0.0276,0,0,0.0348,0.0343,0.0346,0.0342,0.0336,0.033,0.0331,0.0323,0.0319,0.032,0.0311,0.0311,0.0308,0.0304,0.0302,0.0314,0.0308,0.0314,0.0323,0.0326,0.0327,0.0329,0.0333,0.0334,0.0315,0.0315,0.0315,0,0.0358,0.0356,0.0347,0.0348,0.0346,0.0335,0.0337,0.0334,0.0328,0.0327,0.0323,0.0319,0.0315,0.0317,0.032,0.0318,0.0319,0.0315,0.0328,0.0329,0.033,0.0334,0.0336,0.0316,0.0316,0.0316,0.0316,0,0.0368,0.0368,0.037,0.0364,0.0363,0.0364,0.0356,0.0355,0.0349,0.0344,0.0345,0.034,0.0336,0.0336,0.0331,0.0338,0.0335,0.0329,0.0321,0.0333,0.0337,0.0338,0.0317,0.0317,0.0316,0.0316,0,0,0.0389,0.0379,0.038,0.0377,0.037,0.0369,0.0371,0.0367,0.0367,0.0363,0.0364,0.0362,0.0357,0.0354,0.0349,0.0351,0.0361,0.0344,0.0344,0.0347,0.0368,0.0372,0.0374,0.0356,0.0357,0.0357,0.0368,0,0.04,0.0401,0.0393,0.0396,0.0396,0.0386,0.0387,0.0383,0.0378,0.0377,0.0372,0.0371,0.0364,0.0363,0.0364,0.0359,0.0364,0.0358,0.0357,0.0357,0.0358,0.0376,0.038,0.0391,0.0369,0.037,0.037,0,0.0413,0.041,0.0413,0.0406,0.0405,0.0406,0.0403,0.0402,0.0398,0.0394,0.0392,0.0385,0.0386,0.0379,0.038,0.0376,0.0375,0.0372,0.0373,0.0372,0.0364,0.0375,0.0394,0.0396,0.0372,0.0372,0.0372,0,0.0428,0.0424,0.0426,0.0424,0.0416,0.0417,0.0414,0.0409,0.0407,0.0404,0.0403,0.0401,0.0399,0.0398,0.0391,0.0386,0.0393,0.0385,0.039,0.039,0.0391,0.0391,0.041,0.0391,0.0391,0.0391,0.0391,0,0.044,0.0443,0.0432,0.0433,0.0435,0.0427,0.0429,0.0425,0.0421,0.0421,0.0413,0.0413,0.0404,0.0403,0.0398,0.04,0.0399,0.0397,0.0395,0.0397,0.0398,0.0396,0.0395,0.0392,0.0392,0.0392,0.0392,0,0.0457,0.045,0.0451,0.0443,0.0442,0.0444,0.0437,0.0438,0.0433,0.0433,0.0433,0.0425,0.0424,0.0417,0.0414,0.0411,0.0414,0.0412,0.0416,0.0415,0.042,0.042,0.0439,0.0441,0.0421,0.0421,0.0421,0,0.0465,0.0467,0.046,0.0459,0.0456,0.0455,0.0454,0.0446,0.0445,0.044,0.0441,0.044,0.0438,0.0436,0.0431,0.0429,0.0426,0.0432,0.0425,0.0427,0.0426,0.0425,0.0425,0.0434,0.0434,0.0434,0.0434,0,0.0481,0.0478,0.0476,0.0473,0.0472,0.0469,0.0466,0.0466,0.0458,0.0457,0.0456,0.0454,0.0452,0.045,0.0447,0.0444,0.0438,0.0437,0.0438,0.044,0.0442,0.0441,0.042,0.0436,0.0436,0.0436,0.0436,0.0436,0.0493,0.0494,0.049,0.0488,0.0485,0.0483,0.0483,0.0478,0.0477,0.0474,0.0469,0.0469,0.0465,0.046,0.0458,0.0457,0.0454,0.0455,0.0456,0.0456,0.0457,0.0443,0.0457,0.0457,0.0457,0.0457,0.0457,0,0.0509,0.0505,0.0504,0.05,0.0499,0.0493,0.049,0.0489,0.0489,0.0486,0.0484,0.0483,0.0481,0.0476,0.0474,0.0475,0.0472,0.0474,0.0474,0.0473,0.046,0.046,0.0477,0.0477,0.0477,0.0477,0.0477,0.0477,0.0516,0.0518,0.0514,0.0514,0.051,0.0509,0.0508,0.0506,0.0503,0.0502,0.0501,0.0497,0.0493,0.0491,0.0489,0.0488,0.0487,0.0491,0.0488,0.0476,0.0474,0.0472,0.0472,0.0491,0.0491,0.0501,0.0501,0.0501]},{"header":{"parameterUnit":"m.s-1","parameterCategory":1,"la1":30.2991,"la2":30.254,"lo1":-89.0895,"lo2":-89.0444,"dy":0.0017,"dx":0.0017,"nx":28,"ny":28,"refTime":"2024-03-17T21:00:00:Z","depth":0,"parameterNumber":3,"parameterNumberName":"V-component_of_WINDS"},"data":[0,0,0,0,0,0,0,0,0,0,0,0,0,0,0,0,0,0,0,0,0,0,0,0,0,0,0,0,0,0,0,0,0,0,0,0,0,0,0,0,0,0,0,0,0,0,0,0,0,0,0,0,0,0,0,0,0,0,-6.9846,-6.9847,0,-6.9981,-6.9983,-6.9984,-6.9948,-6.9945,-6.9942,-6.994,-7.0072,-7.0077,-7.0083,0,0,0,0,0,0,0,0,0,0,0,0,0,-6.955,-6.9555,-6.9846,-6.9847,-6.9849,-6.9981,-6.9983,-6.9985,-6.9948,-6.9945,-6.9942,-6.9939,-7.007,-7.0077,-7.0084,0,0,0,0,0,0,0,0,0,0,0,0,0,-6.9681,-6.9557,-6.9845,-6.9847,-6.9849,-6.9981,-6.9983,-6.9985,-6.9949,-6.9945,-6.9941,-6.9937,-7.0067,-7.0076,-7.0085,-7.0222,0,0,-7.0113,-7.0116,0,0,0,0,0,0,0,0,-6.9673,-6.9692,-6.9845,-6.9847,-6.9849,-6.9944,-6.9927,-7.0064,-6.995,-6.9911,-6.994,-6.9935,-7.0032,-7.0044,-7.0078,-7.0228,-7.0233,-7.0113,-7.0119,-7.0123,-7.0125,0,0,0,0,0,0,0,-6.9664,-6.9685,-6.9899,-6.9847,-6.985,-6.9839,-6.9853,-6.9952,-6.9992,-6.9914,-6.9911,-6.9928,-7.0032,-7.0069,-7.008,-7.0235,-7.0113,-7.0121,-7.0127,-7.013,-7.0504,-7.0508,0,0,0,0,0,0,-6.9655,-6.9678,-6.9895,-6.9903,-6.975,-6.9848,-6.9863,-6.9917,-6.9991,-6.9998,-6.9932,-6.9926,-7.0056,-7.007,-7.0085,-7.0249,-7.0123,-7.0131,-7.0136,-7.0499,-7.0505,-7.0509,0,0,0,0,0,0,-6.9648,-6.9674,-6.9889,-6.979,-6.9817,-6.9857,-6.9918,-6.9922,-6.9959,-7.0005,-7.0011,-6.9963,-7.0053,-7.0072,-7.0188,-7.0253,-7.0135,-7.0143,-7.0494,-7.0501,-7.0507,-7.058,0,0,0,0,0,0,-6.964,-6.9672,-6.9726,-6.9792,-6.9822,-6.9993,-6.9922,-6.9928,-6.9975,-6.9969,-7.0035,-7.0042,-7.0051,-7.0175,-7.0197,-7.0264,-7.015,-7.0488,-7.0497,-7.0505,-7.0572,-7.0588,-7.0602,0,0,0,0,0,-6.963,-6.974,-6.9729,-6.9755,-6.9891,-6.9996,-7.0014,-7.0024,-6.9981,-7.0034,-7.0063,-7.004,-7.0243,-7.0187,-7.0212,-7.0282,-7.0484,-7.0494,-7.0504,-7.0565,-7.0585,-7.0602,0,0,0,0,0,0,-6.9678,-6.9748,-6.9737,-6.9872,-6.9929,-6.999,-7.0058,-7.0045,-7.0113,-7.0105,-7.0112,-7.0127,-7.0246,-7.0276,-7.0212,-7.0418,-7.0357,-7.0372,-7.0394,-7.0414,-7.0429,-7.0419,-7.0158,0,0,0,0,0,-6.9705,-6.9787,-6.9843,-6.9957,-6.9986,-7.0017,-7.0064,-7.0067,-7.0125,-7.0148,-7.0186,-7.0241,-7.0317,-7.0367,-7.044,-7.0576,-7.0589,-7.0636,-7.0651,-7.0664,-7.0677,-7.075,-7.0771,-7.0543,-7.0543,-7.0542,0,0,-6.976,-6.9809,-6.986,-6.9968,-7.0012,-7.0095,-7.0038,-7.0128,-7.0189,-7.0161,-7.0274,-7.0303,-7.0365,-7.0492,-7.055,-7.052,-7.0743,-7.0677,-7.0686,-7.0693,-7.0763,-7.0784,-7.0804,-7.055,-7.0548,-7.0547,0,0,-6.9903,-6.9949,-7.0049,-7.0095,-7.0164,-7.0184,-7.0208,-7.0272,-7.0291,-7.0405,-7.0386,-7.0457,-7.0589,-7.0634,-7.0674,-7.0835,-7.0815,-7.0858,-7.0938,-7.1009,-7.1027,-7.1043,-7.11,-7.112,-7.0871,-7.0872,-7.0872,0,-6.9963,-7.009,-7.0101,-7.0194,-7.0241,-7.0223,-7.0323,-7.0366,-7.0454,-7.0486,-7.0453,-7.0618,-7.0658,-7.0795,-7.0834,-7.0868,-7.0894,-7.085,-7.1024,-7.104,-7.1055,-7.1109,-7.1131,-7.0876,-7.0876,-7.0875,-7.0875,0,-7.0159,-7.0247,-7.0319,-7.0407,-7.0463,-7.0558,-7.0583,-7.0637,-7.0636,-7.0659,-7.0774,-7.0822,-7.0904,-7.0937,-7.0935,-7.1074,-7.1053,-7.1022,-7.0961,-7.1082,-7.1132,-7.1153,-7.0883,-7.0881,-7.088,-7.0879,0,0,-7.0335,-7.043,-7.0456,-7.0496,-7.0571,-7.0638,-7.0732,-7.0815,-7.0861,-7.0922,-7.1,-7.1112,-7.1084,-7.113,-7.1133,-7.1196,-7.132,-7.1157,-7.1158,-7.1185,-7.1474,-7.1496,-7.152,-7.1308,-7.1312,-7.1315,-7.1468,0,-7.0485,-7.0654,-7.0667,-7.0818,-7.0899,-7.0882,-7.0964,-7.1018,-7.1042,-7.1112,-7.1137,-7.1217,-7.1174,-7.1202,-7.1263,-7.1292,-7.1378,-7.1281,-7.1378,-7.1382,-7.1363,-7.1547,-7.1571,-7.1713,-7.1488,-7.1492,-7.1494,0,-7.0682,-7.0752,-7.0911,-7.0975,-7.1009,-7.1083,-7.116,-7.1228,-7.1288,-7.1301,-7.1353,-7.1347,-7.1442,-7.1378,-7.1508,-7.1442,-7.1482,-7.1502,-7.1508,-7.1517,-7.1445,-7.1559,-7.1759,-7.178,-7.1526,-7.1523,-7.1521,0,-7.0794,-7.0927,-7.104,-7.1075,-7.1152,-7.1205,-7.1239,-7.1295,-7.1344,-7.141,-7.1441,-7.1517,-7.1558,-7.1616,-7.163,-7.1583,-7.1759,-7.1697,-7.1771,-7.1771,-7.1808,-7.1806,-7.2016,-7.1836,-7.1836,-7.1835,-7.1835,0,-7.0959,-7.1057,-7.1092,-7.1161,-7.127,-7.1284,-7.1391,-7.1421,-7.1472,-7.1545,-7.1535,-7.1603,-7.1619,-7.169,-7.1702,-7.1807,-7.1825,-7.1837,-7.1839,-7.1838,-7.1836,-7.1864,-7.1854,-7.1841,-7.184,-7.1839,-7.1838,0,-7.1102,-7.113,-7.1252,-7.1316,-7.1334,-7.1411,-7.1465,-7.1531,-7.1554,-7.1647,-7.1669,-7.1705,-7.1788,-7.1809,-7.1907,-7.1915,-7.2039,-7.2032,-7.202,-7.2019,-7.2092,-7.2084,-7.2327,-7.2359,-7.2158,-7.216,-7.2162,0,-7.1205,-7.128,-7.1353,-7.1403,-7.1441,-7.152,-7.1571,-7.1587,-7.1639,-7.1714,-7.177,-7.1853,-7.1919,-7.2053,-7.2086,-7.2161,-7.2154,-7.2234,-7.2165,-7.2162,-7.2155,-7.215,-7.2157,-7.2247,-7.2249,-7.2251,-7.2252,0,-7.1385,-7.1395,-7.147,-7.155,-7.1611,-7.1673,-7.1733,-7.1774,-7.1798,-7.1857,-7.1944,-7.1996,-7.2097,-7.2179,-7.2255,-7.2287,-7.2273,-7.2274,-7.2295,-7.2294,-7.2284,-7.229,-7.2055,-7.2268,-7.2266,-7.2265,-7.2264,-7.2264,-7.1511,-7.1577,-7.1639,-7.1722,-7.177,-7.1826,-7.1891,-7.1923,-7.1997,-7.2082,-7.2087,-7.218,-7.2237,-7.2338,-7.2375,-7.2447,-7.2422,-7.2453,-7.2461,-7.2468,-7.2474,-7.2273,-7.2461,-7.246,-7.246,-7.246,-7.2459,0,-7.1689,-7.1729,-7.1805,-7.1891,-7.1956,-7.194,-7.2006,-7.2061,-7.2144,-7.22,-7.2266,-7.2365,-7.2444,-7.2484,-7.2562,-7.2612,-7.2607,-7.2631,-7.2627,-7.2635,-7.2492,-7.2466,-7.2634,-7.2634,-7.2634,-7.2634,-7.2634,-7.2634,-7.179,-7.1901,-7.1919,-7.2053,-7.2091,-7.2185,-7.2224,-7.2275,-7.232,-7.2431,-7.2498,-7.2525,-7.2573,-7.2655,-7.2726,-7.2735,-7.2764,-7.2791,-7.2797,-7.2663,-7.2645,-7.2628,-7.2603,-7.2798,-7.2798,-7.2934,-7.2936,-7.2937]}]]